This is the latest recevied weather packets stored in our database for station/object AD8BW. If no packets are shown the sender has not sent any weather packets the latest 10 day(s).
| Time | Temp. | Humidity | Pressure | Rain* | Wind** | Luminosity | Snow |
|---|---|---|---|---|---|---|---|
| 1777666783 | 7.78° C | 55% | 1012.9 hPa | 0 mm | - | 197 W/m² | - |
| 1777666186 | 8.33° C | 56% | 1013 hPa | 0 mm | - | 111 W/m² | - |
| 1777665578 | 7.78° C | 55% | 1012.8 hPa | 0 mm | - | 156 W/m² | - |
| 1777664979 | 7.78° C | 55% | 1012.9 hPa | 0 mm | - | 135 W/m² | - |
| 1777664376 | 7.78° C | 58% | 1012.8 hPa | 0 mm | - | 128 W/m² | - |
| 1777663780 | 7.78° C | 58% | 1012.9 hPa | 0 mm | - | 116 W/m² | - |
| 1777663179 | 7.78° C | 55% | 1012.8 hPa | 0 mm | - | 130 W/m² | - |
| 1777662577 | 7.78° C | 59% | 1012.8 hPa | 0 mm | - | 195 W/m² | - |
| 1777661978 | 7.22° C | 60% | 1012.7 hPa | 0 mm | - | 58 W/m² | - |
| 1777661377 | 8.33° C | 59% | 1012.6 hPa | 0 mm | - | 60 W/m² | - |
| 1777660779 | 8.33° C | 54% | 1012.5 hPa | 0 mm | - | 225 W/m² | - |
| 1777660172 | 7.78° C | 57% | 1012.5 hPa | 0 mm | - | 199 W/m² | - |
| 1777659574 | 8.33° C | 57% | 1012.5 hPa | 0 mm | - | 204 W/m² | - |
| 1777658974 | 7.78° C | 59% | 1012.4 hPa | 0 mm | - | 162 W/m² | - |
| 1777658370 | 7.78° C | 59% | 1012.5 hPa | 0 mm | - | 127 W/m² | - |
| 1777657770 | 7.22° C | 61% | 1012.5 hPa | 0 mm | - | 114 W/m² | - |
| 1777657167 | 7.22° C | 60% | 1012.6 hPa | 0 mm | - | 100 W/m² | - |
| 1777656569 | 7.22° C | 59% | 1012.6 hPa | 0 mm | - | 105 W/m² | - |
| 1777655969 | 7.78° C | 60% | 1012.4 hPa | 0 mm | - | 95 W/m² | - |
| 1777655370 | 7.78° C | 58% | 1012.4 hPa | 0 mm | - | 128 W/m² | - |
| 1777654772 | 8.33° C | 56% | 1012.3 hPa | 0 mm | - | 197 W/m² | - |
| 1777654167 | 8.33° C | 56% | 1012.3 hPa | 0 mm | - | 172 W/m² | - |
| 1777653567 | 8.33° C | 56% | 1012.3 hPa | 0 mm | - | 186 W/m² | - |
| 1777652967 | 8.33° C | 60% | 1012.4 hPa | 0 mm | - | 197 W/m² | - |
| 1777652366 | 8.33° C | 56% | 1012.4 hPa | 0 mm | - | 227 W/m² | - |
* Rain latest hour (hover to see other rain measurements)
** Current wind speed in m/s (hover to see current wind gust speed)